Hourly Data Report for September 29, 2017

All times are specified in Local Standard Time (LST). Add 1 hour to adjust for Daylight Saving Time where and when it is observed.

ST. PETERS
PRINCE EDWARD ISLAND

46°27'01.000" N
62°34'33.000" W
29.70 m
8300562
71310
ZSP

Download Data

Hourly Data (September 2017)
Hourly Data Report for September 29, 2017
Temp Definition
°C
Dew Point Temp Definition
°C
Rel Hum Definition
%
Wind Dir Definition
10's deg

Wind Spd Definition
km/h
Visibility Definition
km
Stn Press Definition
kPa
Hmdx Definition


Wind Chill Definition


Weather Definition


TIME
00:00 12.9 6.0 63 30 24   100.01     LegendNANA
01:00 12.9 7.5 70 31 21   100.03     LegendNANA
02:00 12.4 6.8 69 29 24   100.06     LegendNANA
03:00 12.0 5.8 66 30 24   100.05     LegendNANA
04:00 11.6 6.1 69 30 22   100.08     LegendNANA
05:00 11.5 5.9 69 29 24   100.11     LegendNANA
06:00 11.4 5.6 68 29 26   100.13     LegendNANA
07:00 11.4 5.5 67 30 25   100.21     LegendNANA
08:00 11.0 5.0 67 30 25   100.28     LegendNANA
09:00 11.1 5.5 68 32 25   100.34     LegendNANA
10:00 10.9 6.6 75 31 23   100.37     LegendNANA
11:00 11.8 7.8 76 32 26   100.40     LegendNANA
12:00 12.0 8.7 80 31 24   100.46     LegendNANA
13:00 10.8 9.5 92 32 24   100.49     LegendNANA
14:00 10.9 8.8 87 34 24   100.59     LegendNANA
15:00 10.8 7.8 82 33 25   100.68     LegendNANA
16:00 9.7 7.3 85 33 21   100.78     LegendNANA
17:00 10.0 6.4 79 32 22   100.87     LegendNANA
18:00 9.1 6.4 83 33 18   100.96     LegendNANA
19:00 9.4 6.9 85 34 20   101.03     LegendNANA
20:00 9.4 6.9 85 35 19   101.09     LegendNANA
21:00 8.9 7.6 92 34 18   101.14     LegendNANA
22:00 9.7 6.7 81 36 19   101.16     LegendNANA
23:00 9.0 7.3 89 35 20   101.25     LegendNANA

Notes on Data Quality.

Legend

  • E = Estimated
  • M = Missing
  • NA = Not Available
  • ‡ = Partner data that is not subject to review by the National Climate Archives
Date modified: